Doha, Qatar

11:08 PM +03 on April 23, 2018 (GMT +0300)
Doha International

Weather History for OTBD - May, 2013

Change the Weather History Date:

Thursday, May 16, 2013

  Actual Average Record
Temperature  
Mean Temperature 93 °F -  
Max Temperature 103 °F 104 °F 109 °F (1998)
Min Temperature 83 °F 80 °F 78 °F (1997)
Cooling Degree Days 28    
Growing Degree Days 43 (Base 50)    
Moisture  
Dew Point 56 °F    
Average Humidity 30    
Maximum Humidity 62    
Minimum Humidity 5    
Precipitation  
Precipitation 0.00 in 0.00 in - ()
Sea Level Pressure  
Sea Level Pressure 29.68 in    
Wind  
Wind Speed 5 mph ()    
Max Wind Speed 12 mph    
Max Gust Speed -    
Visibility 6.2 miles    
Events      
Averages and records for this station are not official NWS values.
T = Trace of Precipitation, MM = Missing Value Source: Averaged Metar Reports

Daily Weather History Graph

Daily Weather History Graph

Search for Another Location

Airport or City:

Astronomy

May. 16, 2013 Rise Set
Actual Time 4:48 AM +03 6:11 PM +03
Civil Twilight 4:23 AM +03 6:36 PM +03
Nautical Twilight 3:54 AM +03 7:06 PM +03
Astronomical Twilight 3:23 AM +03 7:37 PM +03
Moon 9:50 AM +03 (5/16) 11:05 PM +03 (5/16)
Length of Visible Light 14h 13m
Length of Day
13h 23m
Waxing Crescent, 33% of the Moon is Illuminated
May 16
Waxing Crescent
May 18
First Quarter
May 25
Full
May 31
Last Quarter
Jun 8
New

Hourly Weather History & Observations

Time (+03) Temp. Heat Index Dew Point Humidity Pressure Visibility Wind Dir Wind Speed Gust Speed Precip Events Conditions
12:00 AM 86.0 °F 87.3 °F 64.4 °F 48% 29.71 in - Variable 1.2 mph - N/A   Clear
12:30 AM 86.0 °F 87.3 °F 64.4 °F 48% 29.68 in - Calm Calm - N/A   Clear
1:00 AM 84.2 °F 86.6 °F 66.2 °F 55% 29.68 in - Calm Calm - N/A   Clear
2:00 AM 86.0 °F 87.3 °F 64.4 °F 48% 29.68 in - Variable 2.3 mph - N/A   Clear
3:00 AM 84 °F - 68 °F 50% 29.69 in 6 mi SSW 4.6 mph - -  
3:00 AM 84.2 °F 87.3 °F 68.0 °F 58% 29.68 in - SSW 4.6 mph - N/A   Clear
3:30 AM 84.2 °F 87.3 °F 68.0 °F 58% 29.68 in - SSW 4.6 mph - N/A   Clear
4:00 AM 84.2 °F 88.4 °F 69.8 °F 62% 29.68 in - SW 3.5 mph - N/A   Clear
4:30 AM 84.2 °F 87.3 °F 68.0 °F 58% 29.68 in - SSW 3.5 mph - N/A   Clear
5:00 AM 84.2 °F 87.3 °F 68.0 °F 58% 29.68 in - South 3.5 mph - N/A   Clear
6:00 AM 86.0 °F 89.4 °F 68.0 °F 55% 29.68 in - Variable 2.3 mph - N/A   Clear
6:30 AM 89.6 °F 93.4 °F 68.0 °F 49% 29.71 in - SSE 3.5 mph - N/A   Clear
7:00 AM 91.4 °F 91.4 °F 60.8 °F 36% 29.71 in - SSE 3.5 mph - N/A   Clear
7:30 AM 93.2 °F 92.6 °F 59.0 °F 32% 29.71 in - SE 3.5 mph - N/A   Clear
8:00 AM 96.8 °F 95.1 °F 55.4 °F 25% 29.71 in - South 4.6 mph - N/A   Clear
8:30 AM 98.6 °F 98.5 °F 59.0 °F 27% 29.71 in - South 3.5 mph - N/A   Clear
9:00 AM 102 °F - 38 °F 5% 29.74 in 6 mi ESE 9.2 mph - -  
9:00 AM 102.2 °F - 37.4 °F 11% 29.71 in - ESE 9.2 mph - N/A   Clear
9:30 AM 98.6 °F - 50.0 °F 19% 29.74 in - ESE 11.5 mph - N/A   Clear
10:00 AM 98.6 °F 97.6 °F 57.2 °F 25% 29.71 in - East 10.4 mph - N/A   Clear
10:30 AM 100.4 °F 99.7 °F 57.2 °F 24% 29.71 in - SE 9.2 mph - N/A   Clear
11:00 AM 102.2 °F - 51.8 °F 18% 29.71 in - ESE 9.2 mph - N/A   Clear
11:30 AM 102.2 °F - 50.0 °F 17% 29.71 in - SE 9.2 mph - N/A   Clear
12:00 PM 102.2 °F - 51.8 °F 18% 29.71 in - ESE 8.1 mph - N/A   Clear
12:30 PM 104.0 °F 102.3 °F 53.6 °F 19% 29.68 in - ESE 9.2 mph - N/A   Clear
1:00 PM 102.2 °F - 51.8 °F 18% 29.68 in - ESE 11.5 mph - N/A   Clear
1:30 PM 102.2 °F 101.4 °F 57.2 °F 22% 29.68 in - ESE 11.5 mph - N/A   Clear
2:00 PM 102.2 °F - 50.0 °F 17% 29.65 in - SE 11.5 mph - N/A   Clear
2:30 PM 102.2 °F - 46.4 °F 15% 29.65 in - SE 11.5 mph - N/A   Clear
3:00 PM 103 °F - 49 °F 9% 29.67 in 7 mi SE 11.5 mph - -  
3:00 PM 102.2 °F - 50.0 °F 17% 29.65 in - SE 11.5 mph - N/A   Clear
3:30 PM 104.0 °F - 41.0 °F 12% 29.65 in - SSE 10.4 mph - N/A   Clear
4:00 PM 104.0 °F - 39.2 °F 11% 29.65 in - SSE 9.2 mph - N/A   Clear
4:30 PM 102.2 °F - 39.2 °F 11% 29.65 in - SE 11.5 mph - N/A   Clear
5:00 PM 102.2 °F - 44.6 °F 14% 29.65 in - SE 10.4 mph - N/A   Clear
5:30 PM 100.4 °F - 46.4 °F 16% 29.65 in - SE 11.5 mph - N/A   Clear
6:00 PM 98.6 °F - 51.8 °F 21% 29.65 in - SE 8.1 mph - N/A   Clear
6:30 PM 96.8 °F 95.1 °F 55.4 °F 25% 29.65 in - SE 8.1 mph - N/A   Clear
7:00 PM 95.0 °F 93.0 °F 55.4 °F 26% 29.65 in - SE 8.1 mph - N/A   Clear
8:00 PM 96.8 °F - 51.8 °F 22% 29.65 in - SSE 6.9 mph - N/A   Clear
8:30 PM 96.8 °F 95.1 °F 55.4 °F 25% 29.65 in - SSE 4.6 mph - N/A   Clear
9:00 PM 95 °F - 58 °F 20% 29.68 in 6 mi South 3.5 mph - -  
9:00 PM 95.0 °F 94.4 °F 59.0 °F 30% 29.68 in - South 3.5 mph - N/A   Clear
9:30 PM 95.0 °F 94.4 °F 59.0 °F 30% 29.68 in - South 4.6 mph - N/A   Clear
10:00 PM 95.0 °F 95.2 °F 60.8 °F 32% 29.68 in - South 3.5 mph - N/A   Clear
10:30 PM 93.2 °F 94.1 °F 62.6 °F 36% 29.68 in - South 4.6 mph - N/A   Clear
11:00 PM 93.2 °F 94.9 °F 64.4 °F 38% 29.65 in - South 3.5 mph - N/A   Clear